COSMOS 2457 (733)

Last updated on Tue Sep 16 2025 00:03:19 GMT+0000 (Coordinated Universal Time)

1 36112U 09070B 25258.17058738 .00000034 00000+0 00000+0 0 9995 2 36112 64.8343 80.2142 0005940 135.5621 226.2001 2.13101050122574
UTC large
Height (km)
Speed (km/s)
/
Latitude / Longitude
Inclination (degrees)
Orbital Period (minutes)
Azimuth
Elevation
Range (km)
Doppler Factor

Next 0 passes for location: London (51.5072 / 0.1276)

Sorry there are no passes over London.